Retour au catalogue

THORAD AGENA D DEB

ActifLEO
NORAD 5635·DEBRIS·🇺🇸 United States

Lancé Sep 30, 1969 depuis Vandenberg Space Force Base

Loading…

Prochains Passages (prochaines 24 heures)

TLE

FraisSource: Space-Track

Époque: Sep 14, 2026, 06:00 UTC

1 05635U 69082JF  26257.25058181  .00001767  00000-0  49033-3 0  9999
2 05635  69.9380 340.3256 0005483 310.3728  49.6925 14.48112501881383

Suivez THORAD AGENA D DEB en temps réel avec AllMySat

Download on the App Store